Date String (YYYY-MM-DD hh:mm:ss) UTC,Instrument flags,Ambient pressure (hPa),Sample flow (lpm),Bypass flow (lpm),Sample temperature (°C),Ambient temperature (°C),ASC tube jacket temperature (°C),LED temperature (°C),Box temperature (°C),Sample RH (%),Span deviation,Mass concentration (μg/m³),Mass concentration (μg/m³),Mass concentration (μg/m³)
DateTimeUTC,F1_M11,P_M11,Q1_M11,Q2_M11,T1_M11,T2_M11,T3_M11,T4_M11,T5_M11,U1_M11,ZSPAN_M11,X2_M11,X0_M11,X1_M11
2023-02-19 09:00:00,,0819.0,4.99,0.00,22.2,21.9,00.0,31.0,24.0,06.1,0000.0,0002.70,0005.51,0001.62
2023-02-19 09:01:00,,0818.8,4.99,0.00,22.2,21.5,00.0,31.0,23.9,06.2,0000.0,0002.77,0005.70,0001.61
2023-02-19 09:02:00,,0818.4,4.99,0.00,22.2,21.1,00.0,31.0,23.9,06.1,0000.0,0002.80,0005.60,0001.61
2023-02-19 09:03:00,,0818.8,4.97,0.00,22.1,20.9,00.0,31.0,23.9,06.1,0000.0,0002.81,0005.85,0001.61
2023-02-19 09:04:00,,0818.9,4.99,0.00,22.1,20.7,00.0,31.0,23.8,06.1,0000.0,0002.83,0005.81,0001.62
2023-02-19 09:05:00,,0818.9,5.01,0.00,22.1,20.5,00.0,31.0,23.8,06.3,0000.0,0002.75,0005.52,0001.62
2023-02-19 09:06:00,,0818.7,5.00,0.00,22.1,20.4,00.0,31.0,23.7,06.4,0000.0,0002.61,0005.12,0001.61
2023-02-19 09:07:00,,0818.7,5.01,0.00,22.1,20.3,00.0,31.0,23.7,06.3,0000.0,0002.62,0004.98,0001.62
2023-02-19 09:08:00,,0818.6,5.01,0.00,22.0,20.1,00.0,31.0,23.6,06.4,0000.0,0002.60,0004.86,0001.62
2023-02-19 09:09:00,,0818.3,5.00,0.00,22.0,20.0,00.0,31.0,23.5,06.2,0000.0,0002.62,0004.89,0001.64
2023-02-19 09:10:00,,0818.4,5.01,0.00,21.9,19.9,00.0,31.0,23.5,06.3,0000.0,0002.62,0006.17,0001.64
2023-02-19 09:11:00,,0818.6,5.00,0.00,21.9,19.9,00.0,30.9,23.4,06.2,0000.0,0002.65,0006.81,0001.67
2023-02-19 09:12:00,,0818.8,5.00,0.00,21.8,19.8,00.0,30.9,23.4,06.2,0000.0,0002.62,0006.88,0001.67
2023-02-19 09:13:00,,0818.6,4.99,0.00,21.8,19.9,00.0,30.9,23.4,06.3,0000.0,0002.59,0007.21,0001.67
2023-02-19 09:14:00,,0818.6,4.98,0.00,21.9,21.0,00.0,30.8,23.7,06.3,0000.0,0002.60,0007.22,0001.67
2023-02-19 09:15:00,,0818.7,5.02,0.00,22.0,22.3,00.0,30.8,24.0,06.1,0000.0,0002.57,0007.35,0001.67
2023-02-19 09:16:00,,0818.6,5.03,0.00,22.1,22.9,00.0,30.8,24.2,06.2,0000.0,0002.60,0007.39,0001.67
2023-02-19 09:17:00,,0818.7,5.00,0.00,22.2,22.3,00.0,30.9,24.1,06.3,0000.0,0002.63,0007.38,0001.67
2023-02-19 09:18:00,,0818.8,5.01,0.00,22.1,21.7,00.0,30.9,23.9,06.3,0000.0,0002.65,0007.80,0001.67
2023-02-19 09:19:00,,0818.4,5.00,0.00,22.1,21.2,00.0,30.9,23.7,06.3,0000.0,0002.69,0008.77,0001.67
2023-02-19 09:20:00,,0818.4,4.99,0.00,22.0,20.8,00.0,31.0,23.6,06.2,0000.0,0002.71,0008.90,0001.67
2023-02-19 09:21:00,,0818.4,4.98,0.00,22.0,20.5,00.0,31.0,23.5,06.3,0000.0,0002.66,0008.26,0001.66
2023-02-19 09:22:00,,0818.0,5.00,0.00,21.9,20.2,00.0,31.0,23.4,06.4,0000.0,0002.66,0007.85,0001.67
2023-02-19 09:23:00,,0818.0,5.00,0.00,21.8,19.9,00.0,30.9,23.2,06.3,0000.0,0002.69,0007.88,0001.67
2023-02-19 09:24:00,,0818.4,5.01,0.00,21.8,19.6,00.0,30.9,23.2,06.2,0000.0,0002.70,0007.61,0001.67
2023-02-19 09:25:00,,0818.4,5.00,0.00,21.7,19.6,00.0,30.9,23.2,06.3,0000.0,0002.70,0007.57,0001.68
2023-02-19 09:26:00,,0818.4,5.02,0.00,21.7,19.8,00.0,30.8,23.3,06.2,0000.0,0002.73,0007.54,0001.68
2023-02-19 09:27:00,,0818.3,5.01,0.00,21.8,21.2,00.0,30.7,23.6,06.2,0000.0,0002.71,0007.49,0001.68
2023-02-19 09:28:00,,0818.4,5.02,0.00,21.9,22.5,00.0,30.7,23.9,06.1,0000.0,0002.72,0007.50,0001.70
2023-02-19 09:29:00,,0818.4,4.98,0.00,22.1,22.8,00.0,30.8,24.1,06.1,0000.0,0002.75,0007.42,0001.72
2023-02-19 09:30:00,,0818.4,5.00,0.00,22.1,22.3,00.0,30.9,24.0,06.2,0000.0,0002.80,0007.16,0001.72
2023-02-19 09:31:00,,0818.4,4.98,0.00,22.1,21.8,00.0,30.9,23.9,06.2,0000.0,0002.74,0006.75,0001.71
2023-02-19 09:32:00,,0818.4,4.97,0.00,22.1,21.3,00.0,30.9,23.9,06.4,0000.0,0002.81,0007.36,0001.72
2023-02-19 09:33:00,,0818.6,4.99,0.00,22.1,21.0,00.0,30.9,23.8,06.3,0000.0,0002.81,0007.37,0001.71
2023-02-19 09:34:00,,0818.7,5.01,0.00,22.1,20.7,00.0,31.0,23.7,06.3,0000.0,0002.78,0007.33,0001.72
2023-02-19 09:35:00,,0818.6,5.00,0.00,22.0,20.5,00.0,31.0,23.7,06.4,0000.0,0002.84,0007.45,0001.73
2023-02-19 09:36:00,,0818.5,5.00,0.00,22.0,20.4,00.0,31.0,23.7,06.5,0000.0,0002.80,0007.36,0001.74
2023-02-19 09:37:00,,0818.6,5.00,0.00,22.0,20.3,00.0,30.9,23.6,06.4,0000.0,0002.77,0007.23,0001.74
2023-02-19 09:38:00,,0818.7,5.00,0.00,22.0,20.2,00.0,30.9,23.7,06.5,0000.0,0002.86,0007.91,0001.76
2023-02-19 09:39:00,,0818.3,5.01,0.00,22.0,20.6,00.0,30.9,23.7,06.3,0000.0,0002.91,0008.37,0001.75
2023-02-19 09:40:00,,0818.4,5.01,0.00,22.1,21.9,00.0,30.8,24.0,06.2,0000.0,0002.93,0008.31,0001.74
2023-02-19 09:41:00,,0818.7,5.04,0.00,22.2,23.0,00.0,30.8,24.3,06.2,0000.0,0002.97,0007.88,0001.75
2023-02-19 09:42:00,,0818.6,4.98,0.00,22.3,22.9,00.0,30.9,24.3,06.2,0000.0,0003.03,0007.70,0001.77
2023-02-19 09:43:00,,0818.6,5.01,0.00,22.3,22.2,00.0,31.0,24.1,06.3,0000.0,0003.02,0007.46,0001.79
2023-02-19 09:44:00,,0818.8,5.02,0.00,22.3,21.7,00.0,31.0,24.0,06.4,0000.0,0003.05,0007.53,0001.80
2023-02-19 09:45:00,,0818.7,4.98,0.00,22.3,21.3,00.0,31.1,23.9,06.2,0000.0,0003.10,0007.58,0001.81
2023-02-19 09:46:00,,0818.6,5.01,0.00,22.2,21.0,00.0,31.1,23.9,06.1,0000.0,0003.09,0007.57,0001.83
2023-02-19 09:47:00,,0818.7,4.99,0.00,22.2,20.8,00.0,31.1,23.8,06.1,0000.0,0003.13,0007.71,0001.85
2023-02-19 09:48:00,,0818.6,5.00,0.00,22.2,20.6,00.0,31.1,23.8,06.1,0000.0,0003.13,0007.74,0001.85
2023-02-19 09:49:00,,0818.4,4.99,0.00,22.2,20.5,00.0,31.1,23.8,06.2,0000.0,0003.09,0006.87,0001.87
2023-02-19 09:50:00,,0818.5,5.01,0.00,22.1,20.4,00.0,31.1,23.7,06.3,0000.0,0003.05,0006.25,0001.88
2023-02-19 09:51:00,,0818.8,5.00,0.00,22.1,20.3,00.0,31.1,23.7,06.3,0000.0,0003.03,0006.17,0001.88
2023-02-19 09:52:00,,0819.0,5.00,0.00,22.1,20.3,00.0,31.1,23.7,06.3,0000.0,0002.96,0007.07,0001.88
2023-02-19 09:53:00,,0818.9,4.99,0.00,22.1,20.2,00.0,31.0,23.7,06.4,0000.0,0002.90,0007.07,0001.87
2023-02-19 09:54:00,,0818.8,5.00,0.00,22.0,20.1,00.0,31.0,23.6,06.4,0000.0,0002.91,0007.13,0001.86
2023-02-19 09:55:00,,0818.8,4.99,0.00,22.0,20.1,00.0,31.0,23.6,06.4,0000.0,0002.89,0007.03,0001.85
2023-02-19 09:56:00,,0818.8,5.02,0.00,22.0,21.1,00.0,30.9,23.8,06.4,0000.0,0002.88,0007.76,0001.86
2023-02-19 09:57:00,,0818.8,4.97,0.00,22.2,22.4,00.0,30.9,24.1,06.4,0000.0,0002.91,0007.87,0001.86
2023-02-19 09:58:00,,0818.8,5.00,0.00,22.2,22.4,00.0,31.0,24.2,06.3,0000.0,0002.91,0007.78,0001.86
2023-02-19 09:59:00,,0818.8,4.98,0.00,22.3,21.9,00.0,31.0,24.1,06.6,0000.0,0002.89,0007.74,0001.84
